Terug naar catalogus

DELTA 1 DEB

ActiefSSO
NORAD 35535·DEBRIS·🇺🇸 United States

Gelanceerd Jun 12, 1975 vanaf Vandenberg Space Force Base

Loading…

Volgende Passages (komende 24 uur)

TLE

VersSource: Space-Track

Epoch: Sep 13, 2026, 04:34 UTC

1 35535U 75052LH  26256.19056858  .00000003  00000-0  40317-4 0  9995
2 35535  98.8386 238.2112 0095348  37.9252 322.8567 13.79353281178013

Volg DELTA 1 DEB in realtime met AllMySat

Download on the App Store